VJT29 LPPD-LFLY

Flight info

Callsign VJT29
Flight time 3h 29m
Altitude 35000
Route LENSI T25 GUNTI/N0459F350 DCT RITUS DCT TOSDI DCT PPN DCT MEZIN
Aircraft B738/M-SDE2E3FGHIRWXY/LB1

Departure

Time 2026-05-07 16:00
Airport João Paulo II Airport (LPPD)

Arrival

Time 2026-05-07 19:30
Airport Lyon Bron Airport (LFLY)
Time Latitude Longitude Altitude Speed Heading
2026-05-07 15:48 37.74157 -25.70169 242 ft 0 kts 108°
2026-05-07 15:54 37.74156 -25.70164 242 ft 2 kts 105°
2026-05-07 15:54 37.74158 -25.70148 241 ft 3 kts 71°
2026-05-07 15:55 37.74180 -25.70136 241 ft 4 kts 353°
2026-05-07 15:55 37.74204 -25.70147 242 ft 4 kts 331°
2026-05-07 15:55 37.74229 -25.70194 244 ft 8 kts 296°
2026-05-07 15:55 37.74247 -25.70240 245 ft 5 kts 313°
2026-05-07 15:56 37.74279 -25.70239 246 ft 5 kts 21°
2026-05-07 15:56 37.74311 -25.70227 246 ft 5 kts
2026-05-07 15:56 37.74352 -25.70260 247 ft 11 kts 301°
2026-05-07 15:56 37.74385 -25.70359 251 ft 13 kts 290°
2026-05-07 15:57 37.74418 -25.70471 255 ft 14 kts 291°
2026-05-07 15:57 37.74456 -25.70594 258 ft 17 kts 291°
2026-05-07 15:57 37.74498 -25.70728 261 ft 16 kts 292°
2026-05-07 15:57 37.74539 -25.70854 263 ft 15 kts 293°
2026-05-07 15:58 37.74598 -25.70960 266 ft 15 kts 334°
2026-05-07 15:58 37.74660 -25.71014 268 ft 7 kts 294°
2026-05-07 15:58 37.74643 -25.71066 269 ft 7 kts 212°
2026-05-07 15:58 37.74601 -25.71048 268 ft 7 kts 123°
2026-05-07 15:59 37.74597 -25.71035 268 ft 0 kts 108°
2026-05-07 15:59 37.74596 -25.71028 267 ft 3 kts 108°
2026-05-07 15:59 37.74519 -25.70775 262 ft 74 kts 111°
2026-05-07 16:00 37.74253 -25.69930 241 ft 151 kts 112°
2026-05-07 16:00 37.73791 -25.68422 320 ft 210 kts 110°
2026-05-07 16:00 37.73184 -25.66707 1016 ft 228 kts 120°
2026-05-07 16:00 37.72291 -25.64943 1717 ft 238 kts 120°
2026-05-07 16:01 37.71458 -25.63217 2540 ft 228 kts 117°
2026-05-07 16:01 37.70660 -25.61496 3393 ft 225 kts 117°
2026-05-07 16:01 37.69877 -25.59780 4122 ft 231 kts 118°
2026-05-07 16:01 37.69065 -25.57986 4663 ft 242 kts 118°
2026-05-07 16:02 37.68211 -25.56096 5087 ft 253 kts 118°
2026-05-07 16:02 37.67318 -25.54114 5399 ft 270 kts 118°
2026-05-07 16:02 37.66362 -25.51993 5858 ft 283 kts 118°
2026-05-07 16:02 37.65365 -25.49786 6421 ft 295 kts 118°
2026-05-07 16:03 37.64343 -25.47511 6962 ft 306 kts 117°
2026-05-07 16:03 37.63656 -25.44936 7498 ft 313 kts 95°
2026-05-07 16:03 37.63358 -25.42185 8071 ft 323 kts 94°
2026-05-07 16:03 37.63042 -25.39300 8644 ft 335 kts 95°
2026-05-07 16:04 37.62694 -25.36343 9211 ft 345 kts 96°
2026-05-07 16:04 37.62324 -25.33312 9787 ft 355 kts 96°
2026-05-07 16:04 37.62254 -25.30227 10283 ft 355 kts 77°
2026-05-07 16:04 37.62719 -25.27177 10808 ft 354 kts 73°
2026-05-07 16:05 37.63241 -25.24166 11507 ft 353 kts 73°
2026-05-07 16:05 37.63780 -25.21111 12290 ft 354 kts 73°
2026-05-07 16:05 37.64314 -25.18067 13072 ft 355 kts 73°
2026-05-07 16:05 37.64835 -25.15036 13831 ft 356 kts 73°
2026-05-07 16:06 37.65355 -25.11969 14553 ft 356 kts 74°
2026-05-07 16:06 37.65864 -25.08933 15273 ft 355 kts 74°
2026-05-07 16:06 37.66366 -25.05901 16017 ft 354 kts 74°
2026-05-07 16:06 37.66870 -25.02847 16775 ft 351 kts 74°
2026-05-07 16:07 37.67365 -24.99832 17543 ft 349 kts 74°
2026-05-07 16:07 37.67848 -24.96878 18314 ft 345 kts 73°
2026-05-07 16:07 37.68329 -24.93925 18999 ft 340 kts 73°
2026-05-07 16:07 37.68802 -24.91020 19689 ft 333 kts 73°
2026-05-07 16:08 37.69257 -24.88218 20393 ft 326 kts 72°
2026-05-07 16:08 37.69707 -24.85437 21035 ft 321 kts 72°
2026-05-07 16:08 37.70173 -24.82600 21176 ft 337 kts 72°
2026-05-07 16:08 37.70656 -24.79670 21309 ft 351 kts 73°
2026-05-07 16:09 37.71165 -24.76567 21446 ft 367 kts 73°
2026-05-07 16:09 37.71687 -24.73372 21578 ft 382 kts 73°
2026-05-07 16:09 37.72233 -24.70002 21709 ft 398 kts 74°
2026-05-07 16:09 37.72796 -24.66506 21817 ft 413 kts 74°
2026-05-07 16:10 37.73378 -24.62881 21932 ft 428 kts 74°
2026-05-07 16:10 37.73972 -24.59168 22085 ft 440 kts 75°
2026-05-07 16:10 37.74583 -24.55327 22464 ft 446 kts 75°
2026-05-07 16:10 37.75194 -24.51468 22978 ft 448 kts 75°
2026-05-07 16:11 37.75804 -24.47611 23470 ft 451 kts 75°
2026-05-07 16:11 37.76419 -24.43721 23837 ft 455 kts 75°
2026-05-07 16:11 37.77041 -24.39789 24219 ft 458 kts 75°
2026-05-07 16:11 37.77668 -24.35817 24583 ft 461 kts 75°
2026-05-07 16:12 37.78299 -24.31821 24973 ft 463 kts 75°
2026-05-07 16:12 37.78924 -24.27845 25341 ft 466 kts 74°
2026-05-07 16:12 37.79562 -24.23787 25712 ft 469 kts 75°
2026-05-07 16:12 37.80192 -24.19764 26048 ft 472 kts 75°
2026-05-07 16:13 37.80833 -24.15666 26433 ft 474 kts 75°
2026-05-07 16:13 37.81464 -24.11609 26903 ft 473 kts 74°
2026-05-07 16:13 37.82098 -24.07529 27388 ft 472 kts 74°
2026-05-07 16:13 37.82730 -24.03446 27853 ft 472 kts 74°
2026-05-07 16:14 37.83364 -23.99347 28295 ft 472 kts 74°
2026-05-07 16:14 37.83988 -23.95309 28709 ft 472 kts 74°
2026-05-07 16:14 37.84618 -23.91219 29158 ft 472 kts 74°
2026-05-07 16:14 37.85250 -23.87108 29584 ft 472 kts 74°
2026-05-07 16:15 37.85867 -23.83082 29998 ft 471 kts 74°
2026-05-07 16:15 37.86493 -23.78987 30370 ft 470 kts 74°
2026-05-07 16:15 37.87106 -23.74965 30776 ft 468 kts 74°
2026-05-07 16:15 37.87723 -23.70904 31162 ft 466 kts 74°
2026-05-07 16:16 37.88329 -23.66916 31538 ft 464 kts 74°
2026-05-07 16:16 37.88938 -23.62894 31889 ft 463 kts 75°
2026-05-07 16:16 37.89539 -23.58922 32220 ft 462 kts 75°
2026-05-07 16:16 37.90143 -23.54916 32558 ft 461 kts 75°
2026-05-07 16:17 37.90743 -23.50928 32920 ft 459 kts 75°
2026-05-07 16:17 37.91333 -23.46989 33252 ft 458 kts 75°
2026-05-07 16:17 37.91927 -23.43025 33556 ft 457 kts 75°
2026-05-07 16:17 37.92518 -23.39068 33840 ft 456 kts 75°
2026-05-07 16:18 37.93108 -23.35108 34112 ft 455 kts 75°
2026-05-07 16:18 37.93695 -23.31160 34366 ft 453 kts 75°
2026-05-07 16:18 37.94279 -23.27223 34590 ft 453 kts 75°
2026-05-07 16:18 37.94853 -23.23344 34811 ft 452 kts 75°
2026-05-07 16:19 37.95434 -23.19423 35054 ft 451 kts 75°
2026-05-07 16:19 37.96012 -23.15541 35268 ft 450 kts 75°
2026-05-07 16:19 37.96599 -23.11616 35472 ft 450 kts 75°
2026-05-07 16:19 37.97176 -23.07761 35666 ft 449 kts 75°
2026-05-07 16:20 37.97761 -23.03854 35876 ft 448 kts 75°
2026-05-07 16:20 37.98338 -23.00014 36069 ft 447 kts 75°
2026-05-07 16:20 37.98924 -22.96120 36238 ft 447 kts 75°
2026-05-07 16:20 37.99503 -22.92270 36424 ft 446 kts 75°
2026-05-07 16:21 38.00085 -22.88387 36604 ft 446 kts 75°
2026-05-07 16:21 38.00668 -22.84551 36709 ft 446 kts 72°
2026-05-07 16:21 38.01642 -22.80850 36715 ft 442 kts 60°
2026-05-07 16:22 38.04355 -22.73779 36800 ft 445 kts 57°
2026-05-07 16:22 38.07202 -22.66789 36897 ft 450 kts 57°
2026-05-07 16:23 38.10116 -22.59699 37168 ft 450 kts 57°
2026-05-07 16:23 38.11551 -22.56210 37382 ft 449 kts 57°
2026-05-07 16:23 38.13001 -22.52686 37544 ft 448 kts 57°
2026-05-07 16:23 38.14436 -22.49200 37661 ft 448 kts 57°
2026-05-07 16:24 38.15891 -22.45666 37827 ft 447 kts 57°
2026-05-07 16:24 38.17314 -22.42204 37930 ft 447 kts 57°
2026-05-07 16:24 38.18768 -22.38672 37914 ft 448 kts 57°
2026-05-07 16:25 38.21646 -22.31675 37917 ft 448 kts 57°
2026-05-07 16:25 38.24522 -22.24668 37922 ft 447 kts 57°
2026-05-07 16:26 38.27391 -22.17663 37914 ft 446 kts 57°
2026-05-07 16:26 38.30257 -22.10645 37915 ft 446 kts 57°
2026-05-07 16:27 38.33107 -22.03656 37896 ft 445 kts 57°
2026-05-07 16:27 38.35968 -21.96628 37902 ft 444 kts 57°
2026-05-07 16:28 38.38803 -21.89653 37898 ft 444 kts 57°
2026-05-07 16:28 38.41627 -21.82693 37900 ft 443 kts 57°
2026-05-07 16:29 38.44455 -21.75709 37905 ft 443 kts 57°
2026-05-07 16:29 38.47708 -21.69097 37911 ft 439 kts 45°
2026-05-07 16:30 38.51628 -21.63089 37904 ft 444 kts 44°
2026-05-07 16:30 38.55676 -21.57019 37906 ft 449 kts 43°
2026-05-07 16:31 38.59761 -21.50926 37902 ft 454 kts 43°
2026-05-07 16:31 38.63873 -21.44798 37889 ft 453 kts 43°
2026-05-07 16:32 38.67921 -21.38733 37884 ft 444 kts 43°
2026-05-07 16:32 38.71910 -21.32725 37893 ft 441 kts 43°
2026-05-07 16:33 38.75858 -21.26758 37887 ft 439 kts 43°
2026-05-07 16:33 38.79797 -21.20783 37892 ft 439 kts 43°
2026-05-07 16:34 38.83737 -21.14791 37889 ft 439 kts 43°
2026-05-07 16:34 38.87666 -21.08797 37895 ft 440 kts 44°
2026-05-07 16:35 38.91595 -21.02793 37899 ft 441 kts 43°
2026-05-07 16:35 38.95557 -20.96725 37901 ft 443 kts 44°
2026-05-07 16:36 38.99513 -20.90659 37902 ft 444 kts 44°
2026-05-07 16:36 39.03469 -20.84584 37897 ft 445 kts 44°
2026-05-07 16:37 39.07440 -20.78476 37884 ft 445 kts 44°
2026-05-07 16:37 39.11411 -20.72358 37892 ft 446 kts 44°
2026-05-07 16:38 39.15375 -20.66240 37895 ft 445 kts 44°
2026-05-07 16:38 39.19346 -20.60092 37891 ft 445 kts 44°
2026-05-07 16:39 39.23290 -20.53970 37896 ft 444 kts 44°
2026-05-07 16:39 39.27235 -20.47823 37892 ft 443 kts 44°
2026-05-07 16:40 39.31147 -20.41707 37903 ft 441 kts 44°
2026-05-07 16:40 39.35031 -20.35614 37897 ft 440 kts 44°
2026-05-07 16:41 39.38260 -20.30532 37906 ft 438 kts 44°
2026-05-07 16:41 39.42127 -20.24424 37910 ft 437 kts 44°
2026-05-07 16:42 39.45953 -20.18370 37913 ft 436 kts 44°
2026-05-07 16:42 39.49783 -20.12291 37906 ft 436 kts 44°
2026-05-07 16:43 39.53612 -20.06205 37911 ft 435 kts 44°
2026-05-07 16:43 39.57425 -20.00131 37919 ft 435 kts 44°
2026-05-07 16:44 39.61264 -19.94010 37925 ft 436 kts 44°
2026-05-07 16:44 39.65077 -19.87922 37926 ft 437 kts 44°
2026-05-07 16:45 39.68903 -19.81806 37927 ft 437 kts 44°
2026-05-07 16:45 39.72743 -19.75653 37933 ft 438 kts 44°
2026-05-07 16:46 39.76563 -19.69527 37935 ft 438 kts 44°
2026-05-07 16:46 39.80410 -19.63348 37938 ft 439 kts 44°
2026-05-07 16:47 39.84234 -19.57197 37943 ft 438 kts 44°
2026-05-07 16:47 39.88058 -19.51033 37943 ft 437 kts 44°
2026-05-07 16:48 39.91894 -19.44842 37946 ft 436 kts 44°
2026-05-07 16:48 39.95694 -19.38698 37950 ft 435 kts 44°
2026-05-07 16:49 39.99473 -19.32580 37951 ft 433 kts 44°
2026-05-07 16:49 40.03257 -19.26444 37957 ft 432 kts 44°
2026-05-07 16:50 40.07029 -19.20327 37955 ft 432 kts 44°
2026-05-07 16:50 40.10775 -19.14247 37966 ft 431 kts 44°
2026-05-07 16:51 40.14531 -19.08153 37965 ft 431 kts 44°
2026-05-07 16:51 40.18273 -19.02077 37972 ft 430 kts 44°
2026-05-07 16:52 40.22025 -18.95985 37969 ft 429 kts 44°
2026-05-07 16:52 40.25777 -18.89884 37976 ft 429 kts 44°
2026-05-07 16:53 40.29508 -18.83816 37982 ft 429 kts 44°
2026-05-07 16:53 40.33244 -18.77730 37986 ft 429 kts 44°
2026-05-07 16:54 40.37007 -18.71594 37987 ft 430 kts 44°
2026-05-07 16:54 40.40731 -18.65514 37996 ft 431 kts 44°
2026-05-07 16:55 40.44499 -18.59361 37995 ft 432 kts 44°
2026-05-07 16:55 40.48257 -18.53215 37993 ft 432 kts 44°
2026-05-07 16:56 40.52030 -18.47035 37988 ft 432 kts 44°
2026-05-07 16:56 40.57669 -18.37777 37988 ft 433 kts 44°
2026-05-07 16:57 40.61414 -18.31610 38000 ft 432 kts 44°
2026-05-07 16:57 40.65151 -18.25443 37993 ft 432 kts 44°
2026-05-07 16:58 40.68903 -18.19233 38006 ft 432 kts 44°
2026-05-07 16:58 40.72628 -18.13053 37999 ft 431 kts 44°
2026-05-07 16:59 40.76365 -18.06835 38010 ft 431 kts 44°
2026-05-07 16:59 40.80063 -18.00669 37998 ft 431 kts 44°
2026-05-07 17:00 40.83789 -17.94431 38014 ft 431 kts 44°
2026-05-07 17:00 40.87489 -17.88221 37990 ft 430 kts 45°
2026-05-07 17:01 40.91194 -17.81999 38011 ft 432 kts 44°
2026-05-07 17:01 40.94900 -17.75740 38026 ft 434 kts 45°
2026-05-07 17:02 40.98642 -17.69418 38026 ft 436 kts 45°
2026-05-07 17:02 41.02384 -17.63091 38038 ft 438 kts 45°
2026-05-07 17:03 41.06138 -17.56742 38039 ft 439 kts 45°
2026-05-07 17:03 41.09925 -17.50313 38040 ft 440 kts 45°
2026-05-07 17:04 41.13678 -17.43930 38031 ft 440 kts 45°
2026-05-07 17:04 41.17416 -17.37545 38037 ft 440 kts 45°
2026-05-07 17:05 41.21159 -17.31133 38032 ft 440 kts 45°
2026-05-07 17:05 41.24912 -17.24674 38039 ft 440 kts 45°
2026-05-07 17:06 41.28628 -17.18268 38042 ft 440 kts 45°
2026-05-07 17:06 41.32370 -17.11803 38046 ft 440 kts 45°
2026-05-07 17:07 41.36092 -17.05370 38044 ft 440 kts 45°
2026-05-07 17:07 41.39825 -16.98908 38061 ft 440 kts 45°
2026-05-07 17:08 41.43565 -16.92436 38049 ft 440 kts 45°
2026-05-07 17:08 41.47286 -16.85988 38050 ft 440 kts 45°
2026-05-07 17:09 41.51015 -16.79532 38060 ft 441 kts 45°
2026-05-07 17:09 41.54755 -16.73057 38057 ft 441 kts 45°
2026-05-07 17:10 41.58509 -16.66572 38061 ft 442 kts 45°
2026-05-07 17:10 41.62279 -16.60062 38070 ft 442 kts 45°
2026-05-07 17:11 41.66061 -16.53545 38062 ft 442 kts 45°
2026-05-07 17:11 41.69827 -16.47059 38065 ft 442 kts 45°
2026-05-07 17:12 41.73602 -16.40582 38061 ft 442 kts 45°
2026-05-07 17:12 41.77378 -16.34121 38063 ft 441 kts 45°
2026-05-07 17:13 41.81186 -16.27639 38065 ft 440 kts 45°
2026-05-07 17:13 41.84974 -16.21215 38064 ft 440 kts 45°
2026-05-07 17:14 41.88776 -16.14798 38074 ft 439 kts 45°
2026-05-07 17:14 41.92569 -16.08421 38077 ft 438 kts 45°
2026-05-07 17:15 41.96384 -16.02048 38074 ft 437 kts 45°
2026-05-07 17:15 42.00221 -15.95678 38072 ft 436 kts 45°
2026-05-07 17:16 42.04051 -15.89371 38069 ft 436 kts 45°
2026-05-07 17:16 42.07882 -15.83100 38074 ft 435 kts 45°
2026-05-07 17:17 42.11737 -15.76840 38077 ft 435 kts 45°
2026-05-07 17:17 42.15628 -15.70559 38080 ft 435 kts 45°
2026-05-07 17:18 42.19516 -15.64325 38087 ft 436 kts 45°
2026-05-07 17:18 42.23434 -15.58076 38083 ft 436 kts 45°
2026-05-07 17:19 42.27360 -15.51846 38082 ft 437 kts 45°
2026-05-07 17:19 42.31341 -15.45559 38083 ft 438 kts 45°
2026-05-07 17:20 42.35313 -15.39312 38088 ft 439 kts 45°
2026-05-07 17:20 42.39295 -15.33071 38084 ft 440 kts 45°
2026-05-07 17:21 42.43296 -15.26819 38084 ft 441 kts 45°
2026-05-07 17:21 42.47314 -15.20559 38086 ft 441 kts 45°
2026-05-07 17:22 42.51374 -15.14253 38085 ft 442 kts 45°
2026-05-07 17:22 42.55410 -15.08001 38079 ft 442 kts 46°
2026-05-07 17:23 42.59448 -15.01764 38085 ft 441 kts 46°
2026-05-07 17:23 42.63511 -14.95502 38085 ft 441 kts 46°
2026-05-07 17:24 42.67679 -14.89322 38105 ft 445 kts 46°
2026-05-07 17:24 42.72063 -14.83341 38102 ft 452 kts 46°
2026-05-07 17:25 42.76549 -14.77284 38099 ft 458 kts 46°
2026-05-07 17:25 42.81118 -14.71125 38079 ft 460 kts 46°
2026-05-07 17:26 42.85616 -14.65065 38071 ft 451 kts 46°
2026-05-07 17:26 42.90073 -14.59056 38089 ft 448 kts 46°
2026-05-07 17:27 42.94479 -14.53107 38092 ft 447 kts 46°
2026-05-07 17:27 42.98888 -14.47139 38100 ft 447 kts 46°
2026-05-07 17:28 43.03308 -14.41144 38103 ft 447 kts 46°
2026-05-07 17:28 43.07722 -14.35141 38104 ft 449 kts 46°
2026-05-07 17:29 43.11413 -14.30110 38102 ft 450 kts 46°
2026-05-07 17:29 43.15860 -14.24031 38102 ft 451 kts 46°
2026-05-07 17:30 43.17795 -14.20724 38079 ft 449 kts 61°
2026-05-07 17:30 43.19299 -14.16978 38107 ft 448 kts 65°
2026-05-07 17:30 43.22020 -14.09279 38098 ft 450 kts 66°
2026-05-07 17:31 43.24682 -14.01510 38103 ft 451 kts 66°
2026-05-07 17:31 43.27331 -13.93703 38098 ft 452 kts 67°
2026-05-07 17:32 43.29970 -13.85879 38101 ft 453 kts 67°
2026-05-07 17:32 43.32602 -13.78038 38103 ft 453 kts 67°
2026-05-07 17:33 43.35250 -13.70118 38105 ft 453 kts 67°
2026-05-07 17:33 43.37863 -13.62270 38109 ft 453 kts 67°
2026-05-07 17:34 43.40472 -13.54405 38107 ft 452 kts 67°
2026-05-07 17:34 43.43063 -13.46560 38107 ft 451 kts 67°
2026-05-07 17:35 43.45659 -13.38670 38108 ft 451 kts 67°
2026-05-07 17:35 43.48224 -13.30846 38112 ft 450 kts 67°
2026-05-07 17:36 43.50795 -13.22970 38113 ft 449 kts 67°
2026-05-07 17:36 43.53342 -13.15134 38113 ft 448 kts 67°
2026-05-07 17:37 43.55890 -13.07266 38111 ft 448 kts 67°
2026-05-07 17:37 43.58413 -12.99439 38115 ft 448 kts 67°
2026-05-07 17:38 43.60923 -12.91618 38112 ft 448 kts 67°
2026-05-07 17:38 43.63432 -12.83771 38113 ft 448 kts 67°
2026-05-07 17:39 43.65953 -12.75858 38114 ft 448 kts 67°
2026-05-07 17:39 43.68446 -12.68005 38121 ft 448 kts 67°
2026-05-07 17:40 43.70947 -12.60098 38114 ft 449 kts 67°
2026-05-07 17:40 43.73443 -12.52185 38114 ft 449 kts 67°
2026-05-07 17:41 43.75924 -12.44293 38116 ft 450 kts 67°
2026-05-07 17:41 43.78420 -12.36328 38117 ft 450 kts 67°
2026-05-07 17:42 43.80908 -12.28363 38114 ft 451 kts 68°
2026-05-07 17:42 43.83393 -12.20382 38114 ft 451 kts 67°
2026-05-07 17:43 43.85858 -12.12439 38116 ft 452 kts 68°
2026-05-07 17:43 43.88347 -12.04390 38113 ft 452 kts 68°
2026-05-07 17:44 43.90815 -11.96384 38112 ft 452 kts 68°
2026-05-07 17:44 43.93275 -11.88377 38116 ft 452 kts 68°
2026-05-07 17:45 43.95737 -11.80331 38118 ft 452 kts 68°
2026-05-07 17:45 43.98187 -11.72301 38114 ft 452 kts 68°
2026-05-07 17:46 44.00640 -11.64229 38116 ft 452 kts 68°
2026-05-07 17:46 44.03080 -11.56165 38117 ft 452 kts 68°
2026-05-07 17:47 44.05491 -11.48162 38115 ft 452 kts 68°
2026-05-07 17:47 44.07922 -11.40055 38114 ft 452 kts 68°
2026-05-07 17:48 44.10325 -11.32005 38115 ft 452 kts 68°
2026-05-07 17:48 44.12730 -11.23915 38118 ft 452 kts 68°
2026-05-07 17:49 44.15115 -11.15857 38117 ft 452 kts 68°
2026-05-07 17:49 44.17510 -11.07725 38114 ft 452 kts 68°
2026-05-07 17:50 44.19890 -10.99616 38113 ft 452 kts 68°
2026-05-07 17:50 44.22262 -10.91501 38115 ft 453 kts 68°
2026-05-07 17:51 44.24626 -10.83376 38116 ft 454 kts 68°
2026-05-07 17:51 44.26984 -10.75234 38115 ft 455 kts 68°
2026-05-07 17:52 44.29345 -10.67043 38112 ft 456 kts 68°
2026-05-07 17:52 44.31710 -10.58795 38118 ft 457 kts 68°
2026-05-07 17:53 44.34058 -10.50560 38108 ft 458 kts 68°
2026-05-07 17:53 44.36414 -10.42254 38112 ft 459 kts 68°
2026-05-07 17:54 44.38755 -10.33958 38111 ft 460 kts 68°
2026-05-07 17:54 44.41092 -10.25626 38110 ft 461 kts 68°
2026-05-07 17:55 44.43424 -10.17269 38107 ft 461 kts 68°
2026-05-07 17:55 44.45745 -10.08909 38107 ft 462 kts 68°
2026-05-07 17:56 44.48068 -10.00503 38109 ft 463 kts 68°
2026-05-07 17:56 44.50376 -9.92105 38105 ft 463 kts 68°
2026-05-07 17:57 44.52296 -9.85081 38105 ft 463 kts 68°
2026-05-07 17:57 44.54963 -9.75269 38103 ft 463 kts 68°
2026-05-07 17:58 44.57244 -9.66827 38106 ft 463 kts 68°
2026-05-07 17:58 44.59527 -9.58330 38100 ft 463 kts 68°
2026-05-07 17:59 44.61784 -9.49885 38102 ft 463 kts 68°
2026-05-07 17:59 44.64024 -9.41452 38101 ft 463 kts 68°
2026-05-07 18:00 44.66275 -9.32926 38103 ft 463 kts 68°
2026-05-07 18:00 44.68500 -9.24452 38095 ft 463 kts 68°
2026-05-07 18:01 44.70717 -9.15953 38099 ft 463 kts 68°
2026-05-07 18:01 44.72918 -9.07464 38109 ft 463 kts 68°
2026-05-07 18:02 44.76203 -8.94712 38098 ft 463 kts 68°
2026-05-07 18:03 44.78390 -8.86158 38099 ft 463 kts 68°
2026-05-07 18:03 44.80557 -8.77648 38099 ft 463 kts 69°
2026-05-07 18:04 44.82723 -8.69110 38095 ft 463 kts 69°
2026-05-07 18:04 44.84883 -8.60562 38100 ft 463 kts 69°
2026-05-07 18:05 44.87027 -8.52045 38098 ft 463 kts 69°
2026-05-07 18:05 44.89171 -8.43495 38099 ft 462 kts 69°
2026-05-07 18:06 44.91314 -8.34922 38096 ft 462 kts 69°
2026-05-07 18:06 44.93441 -8.26385 38096 ft 461 kts 69°
2026-05-07 18:07 44.95559 -8.17860 38099 ft 461 kts 69°
2026-05-07 18:07 44.97669 -8.09338 38098 ft 460 kts 69°
2026-05-07 18:08 44.99772 -8.00812 38096 ft 459 kts 69°
2026-05-07 18:08 45.01854 -7.92350 38097 ft 458 kts 69°
2026-05-07 18:09 45.03949 -7.83814 38103 ft 457 kts 69°
2026-05-07 18:09 45.06029 -7.75321 38099 ft 456 kts 69°
2026-05-07 18:10 45.08088 -7.66887 38102 ft 456 kts 69°
2026-05-07 18:10 45.10150 -7.58422 38104 ft 455 kts 69°
2026-05-07 18:11 45.12221 -7.49918 38104 ft 455 kts 69°
2026-05-07 18:11 45.14279 -7.41460 38102 ft 455 kts 69°
2026-05-07 18:12 45.16344 -7.32963 38114 ft 456 kts 69°
2026-05-07 18:12 45.17965 -7.24286 38115 ft 458 kts 79°
2026-05-07 18:13 45.18799 -7.15357 38105 ft 458 kts 82°
2026-05-07 18:13 45.19608 -7.06423 38100 ft 457 kts 81°
2026-05-07 18:14 45.20533 -6.97523 38110 ft 456 kts 80°
2026-05-07 18:14 45.21517 -6.88666 38109 ft 455 kts 79°
2026-05-07 18:15 45.22510 -6.79826 38106 ft 454 kts 79°
2026-05-07 18:15 45.23495 -6.70988 38108 ft 453 kts 80°
2026-05-07 18:16 45.24470 -6.62138 38111 ft 453 kts 80°
2026-05-07 18:16 45.25434 -6.53316 38113 ft 452 kts 80°
2026-05-07 18:17 45.26386 -6.44524 38110 ft 452 kts 80°
2026-05-07 18:17 45.27334 -6.35712 38111 ft 452 kts 81°
2026-05-07 18:18 45.28281 -6.26847 38117 ft 453 kts 81°
2026-05-07 18:18 45.29214 -6.18040 38113 ft 453 kts 81°
2026-05-07 18:19 45.29991 -6.10656 38114 ft 454 kts 81°
2026-05-07 18:19 45.30921 -6.01752 38111 ft 454 kts 81°
2026-05-07 18:20 45.31839 -5.92898 38117 ft 455 kts 81°
2026-05-07 18:20 45.32753 -5.84014 38117 ft 455 kts 81°
2026-05-07 18:21 45.33659 -5.75133 38109 ft 455 kts 81°
2026-05-07 18:21 45.34566 -5.66183 38118 ft 455 kts 81°
2026-05-07 18:22 45.35460 -5.57283 38109 ft 455 kts 82°
2026-05-07 18:22 45.36350 -5.48348 38115 ft 455 kts 82°
2026-05-07 18:23 45.37225 -5.39487 38119 ft 454 kts 82°
2026-05-07 18:23 45.38095 -5.30616 38113 ft 453 kts 82°
2026-05-07 18:24 45.38958 -5.21735 38115 ft 452 kts 82°
2026-05-07 18:24 45.39816 -5.12839 38118 ft 452 kts 82°
2026-05-07 18:25 45.40660 -5.04010 38114 ft 451 kts 82°
2026-05-07 18:25 45.41500 -4.95146 38124 ft 450 kts 82°
2026-05-07 18:26 45.42325 -4.86373 38120 ft 449 kts 82°
2026-05-07 18:26 45.43149 -4.77537 38122 ft 449 kts 82°
2026-05-07 18:27 45.43963 -4.68723 38125 ft 449 kts 82°
2026-05-07 18:27 45.44767 -4.59950 38125 ft 449 kts 82°
2026-05-07 18:28 45.45571 -4.51101 38126 ft 449 kts 82°
2026-05-07 18:28 45.46362 -4.42310 38127 ft 449 kts 82°
2026-05-07 18:29 45.47147 -4.33517 38126 ft 449 kts 83°
2026-05-07 18:29 45.47931 -4.24651 38126 ft 450 kts 83°
2026-05-07 18:30 45.48706 -4.15808 38128 ft 450 kts 83°
2026-05-07 18:30 45.49476 -4.06944 38128 ft 450 kts 83°
2026-05-07 18:31 45.50237 -3.98101 38129 ft 451 kts 83°
2026-05-07 18:31 45.50993 -3.89233 38127 ft 451 kts 83°
2026-05-07 18:32 45.51743 -3.80353 38123 ft 452 kts 83°
2026-05-07 18:32 45.52486 -3.71475 38130 ft 452 kts 83°
2026-05-07 18:33 45.53223 -3.62576 38130 ft 452 kts 83°
2026-05-07 18:33 45.53953 -3.53680 38131 ft 452 kts 83°
2026-05-07 18:34 45.54680 -3.44735 38124 ft 452 kts 84°
2026-05-07 18:34 45.55395 -3.35849 38130 ft 453 kts 84°
2026-05-07 18:35 45.56105 -3.26941 38125 ft 453 kts 84°
2026-05-07 18:35 45.56814 -3.17956 38125 ft 453 kts 84°
2026-05-07 18:36 45.57509 -3.09048 38130 ft 453 kts 84°
2026-05-07 18:36 45.58197 -3.00152 38128 ft 453 kts 84°
2026-05-07 18:37 45.58879 -2.91234 38128 ft 453 kts 84°
2026-05-07 18:37 45.59555 -2.82298 38126 ft 453 kts 84°
2026-05-07 18:38 45.60227 -2.73325 38131 ft 453 kts 84°
2026-05-07 18:38 45.60888 -2.64408 38127 ft 453 kts 85°
2026-05-07 18:39 45.61544 -2.55453 38125 ft 453 kts 85°
2026-05-07 18:39 45.62193 -2.46499 38133 ft 453 kts 85°
2026-05-07 18:40 45.62833 -2.37579 38126 ft 453 kts 85°
2026-05-07 18:40 45.63466 -2.28649 38127 ft 453 kts 85°
2026-05-07 18:41 45.64094 -2.19685 38124 ft 453 kts 85°
2026-05-07 18:41 45.64719 -2.10674 38129 ft 454 kts 85°
2026-05-07 18:42 45.65332 -2.01718 38128 ft 454 kts 85°
2026-05-07 18:42 45.65940 -1.92742 38125 ft 454 kts 85°
2026-05-07 18:43 45.66541 -1.83770 38126 ft 454 kts 85°
2026-05-07 18:43 45.67133 -1.74813 38131 ft 454 kts 86°
2026-05-07 18:44 45.67720 -1.65828 38129 ft 454 kts 86°
2026-05-07 18:44 45.68301 -1.56821 38126 ft 454 kts 86°
2026-05-07 18:45 45.68874 -1.47820 38129 ft 454 kts 86°
2026-05-07 18:45 45.69440 -1.38836 38132 ft 454 kts 86°
2026-05-07 18:46 45.69998 -1.29851 38132 ft 454 kts 86°
2026-05-07 18:46 45.70551 -1.20838 38131 ft 454 kts 86°
2026-05-07 18:47 45.71096 -1.11829 38132 ft 454 kts 86°
2026-05-07 18:47 45.71632 -1.02850 38128 ft 454 kts 86°
2026-05-07 18:48 45.72166 -0.93790 38132 ft 454 kts 86°
2026-05-07 18:48 45.72688 -0.84824 38127 ft 454 kts 86°
2026-05-07 18:49 45.73206 -0.75784 38127 ft 454 kts 87°
2026-05-07 18:49 45.73715 -0.66787 38130 ft 454 kts 87°
2026-05-07 18:50 45.74217 -0.57786 38133 ft 454 kts 87°
2026-05-07 18:50 45.74710 -0.48801 38129 ft 454 kts 87°
2026-05-07 18:51 45.75201 -0.39743 38131 ft 454 kts 87°
2026-05-07 18:51 45.75681 -0.30747 38132 ft 455 kts 87°
2026-05-07 18:52 45.76157 -0.21682 38131 ft 455 kts 87°
2026-05-07 18:52 45.76624 -0.12679 38141 ft 455 kts 88°
2026-05-07 18:53 45.77084 -0.03638 38139 ft 455 kts 88°
2026-05-07 18:53 45.77537 0.05389 38144 ft 455 kts 88°
2026-05-07 18:54 45.77986 0.14477 38145 ft 456 kts 88°
2026-05-07 18:54 45.78424 0.23501 38147 ft 456 kts 88°
2026-05-07 18:55 45.78857 0.32561 38140 ft 456 kts 88°
2026-05-07 18:55 45.79284 0.41644 38144 ft 456 kts 88°
2026-05-07 18:56 45.79701 0.50666 38147 ft 456 kts 88°
2026-05-07 18:56 45.80114 0.59767 38143 ft 456 kts 88°
2026-05-07 18:57 45.80517 0.68816 38140 ft 456 kts 88°
2026-05-07 18:57 45.80914 0.77856 38142 ft 456 kts 88°
2026-05-07 18:58 45.81304 0.86947 38141 ft 456 kts 88°
2026-05-07 18:58 45.81688 0.96024 38142 ft 455 kts 88°
2026-05-07 18:59 45.82062 1.05075 38142 ft 456 kts 89°
2026-05-07 18:59 45.82430 1.14119 38145 ft 455 kts 89°
2026-05-07 19:00 45.82792 1.23212 38142 ft 456 kts 89°
2026-05-07 19:00 45.83144 1.32242 38147 ft 456 kts 89°
2026-05-07 19:01 45.83492 1.41342 38139 ft 456 kts 89°
2026-05-07 19:01 45.83830 1.50377 38152 ft 456 kts 89°
2026-05-07 19:02 45.84163 1.59477 38149 ft 456 kts 89°
2026-05-07 19:02 45.84490 1.68584 38147 ft 457 kts 89°
2026-05-07 19:03 45.84807 1.77656 38152 ft 457 kts 89°
2026-05-07 19:03 45.85118 1.86723 38159 ft 457 kts 89°
2026-05-07 19:04 45.85424 1.95864 38158 ft 458 kts 89°
2026-05-07 19:04 45.85721 2.04978 38160 ft 458 kts 89°
2026-05-07 19:05 45.86012 2.14119 38160 ft 458 kts 89°
2026-05-07 19:05 45.86295 2.23217 38172 ft 458 kts 89°
2026-05-07 19:06 45.86525 2.30822 38164 ft 458 kts 89°
2026-05-07 19:06 45.86929 2.44546 38170 ft 458 kts 90°
2026-05-07 19:07 45.87187 2.53647 38171 ft 458 kts 90°
2026-05-07 19:07 45.87440 2.62797 38175 ft 458 kts 90°
2026-05-07 19:08 45.87683 2.71879 38181 ft 457 kts 90°
2026-05-07 19:08 45.87921 2.81028 38177 ft 457 kts 90°
2026-05-07 19:09 45.88151 2.90154 38176 ft 457 kts 90°
2026-05-07 19:09 45.88372 2.99233 38171 ft 457 kts 90°
2026-05-07 19:10 45.88588 3.08409 37414 ft 462 kts 90°
2026-05-07 19:10 45.88694 3.13034 36837 ft 462 kts 90°
2026-05-07 19:10 45.88798 3.17609 36251 ft 462 kts 90°
2026-05-07 19:11 45.88900 3.22218 35679 ft 462 kts 90°
2026-05-07 19:11 45.89001 3.26844 35122 ft 463 kts 90°
2026-05-07 19:11 45.89100 3.31454 34570 ft 462 kts 90°
2026-05-07 19:11 45.89197 3.36092 34027 ft 462 kts 90°
2026-05-07 19:12 45.89293 3.40710 33398 ft 462 kts 90°
2026-05-07 19:12 45.89385 3.45291 32792 ft 462 kts 90°
2026-05-07 19:12 45.89476 3.49902 32193 ft 461 kts 90°
2026-05-07 19:12 45.89564 3.54448 31613 ft 460 kts 90°
2026-05-07 19:13 45.89652 3.59072 31030 ft 459 kts 90°
2026-05-07 19:13 45.89736 3.63609 30464 ft 459 kts 90°
2026-05-07 19:13 45.89820 3.68180 29885 ft 458 kts 90°
2026-05-07 19:13 45.89901 3.72752 29237 ft 456 kts 90°
2026-05-07 19:14 45.89980 3.77313 28596 ft 454 kts 90°
2026-05-07 19:14 45.90057 3.81790 27981 ft 451 kts 90°
2026-05-07 19:14 45.90131 3.86291 27369 ft 449 kts 90°
2026-05-07 19:14 45.90204 3.90772 26768 ft 446 kts 90°
2026-05-07 19:15 45.90274 3.95188 26184 ft 443 kts 90°
2026-05-07 19:15 45.90342 3.99615 25609 ft 440 kts 90°
2026-05-07 19:15 45.90408 4.03999 25046 ft 437 kts 90°
2026-05-07 19:15 45.90471 4.08306 24506 ft 434 kts 90°
2026-05-07 19:16 45.90533 4.12644 23956 ft 431 kts 90°
2026-05-07 19:16 45.90593 4.16951 23394 ft 428 kts 90°
2026-05-07 19:16 45.90651 4.21212 22755 ft 425 kts 90°
2026-05-07 19:16 45.90706 4.25390 22144 ft 422 kts 90°
2026-05-07 19:17 45.90760 4.29581 21347 ft 415 kts 90°
2026-05-07 19:17 45.90811 4.33702 20500 ft 409 kts 90°
2026-05-07 19:17 45.90860 4.37758 19679 ft 403 kts 90°
2026-05-07 19:17 45.90907 4.41754 18877 ft 397 kts 90°
2026-05-07 19:18 45.91062 4.45652 18060 ft 393 kts 80°
2026-05-07 19:18 45.91983 4.49331 17153 ft 390 kts 60°
2026-05-07 19:18 45.93684 4.52323 16316 ft 386 kts 40°
2026-05-07 19:18 45.95955 4.54328 15503 ft 381 kts 23°
2026-05-07 19:19 45.98427 4.55671 14700 ft 377 kts 19°
2026-05-07 19:19 46.00880 4.56855 13905 ft 373 kts 18°
2026-05-07 19:19 46.03345 4.58014 13052 ft 369 kts 17°
2026-05-07 19:19 46.05752 4.59142 12194 ft 365 kts 17°
2026-05-07 19:20 46.08171 4.60279 11358 ft 362 kts 17°
2026-05-07 19:20 46.10543 4.61401 10556 ft 359 kts 17°
2026-05-07 19:20 46.12904 4.62524 9736 ft 355 kts 17°
2026-05-07 19:20 46.15233 4.63638 9192 ft 344 kts 17°
2026-05-07 19:21 46.17396 4.64919 8767 ft 331 kts 33°
2026-05-07 19:21 46.18898 4.67254 8381 ft 318 kts 63°
2026-05-07 19:21 46.19381 4.70252 8121 ft 303 kts 94°
2026-05-07 19:21 46.18751 4.73074 7888 ft 290 kts 126°
2026-05-07 19:22 46.17277 4.74859 7659 ft 277 kts 159°
2026-05-07 19:22 46.15426 4.75166 7418 ft 265 kts 193°
2026-05-07 19:22 46.13668 4.74672 7190 ft 258 kts 178°
2026-05-07 19:22 46.11961 4.75348 6995 ft 251 kts 158°
2026-05-07 19:23 46.10366 4.76313 6757 ft 246 kts 158°
2026-05-07 19:23 46.08786 4.77237 6528 ft 244 kts 159°
2026-05-07 19:23 46.07205 4.78129 6322 ft 243 kts 159°
2026-05-07 19:23 46.05649 4.78982 6090 ft 242 kts 160°
2026-05-07 19:24 46.04072 4.79831 5881 ft 240 kts 160°
2026-05-07 19:24 46.02502 4.80665 5676 ft 240 kts 160°
2026-05-07 19:24 46.00924 4.81495 5473 ft 241 kts 160°
2026-05-07 19:24 45.99355 4.82317 5277 ft 242 kts 159°
2026-05-07 19:25 45.97765 4.83145 5074 ft 242 kts 159°
2026-05-07 19:25 45.96186 4.83965 4883 ft 243 kts 159°
2026-05-07 19:25 45.94597 4.84788 4673 ft 243 kts 159°
2026-05-07 19:25 45.93022 4.85603 4472 ft 242 kts 159°
2026-05-07 19:26 45.91435 4.86423 4252 ft 241 kts 159°
2026-05-07 19:26 45.89838 4.87155 4019 ft 239 kts 162°
2026-05-07 19:26 45.88255 4.87821 3819 ft 236 kts 162°
2026-05-07 19:26 45.86692 4.88477 3598 ft 228 kts 162°
2026-05-07 19:27 45.85211 4.89103 3394 ft 219 kts 162°
2026-05-07 19:27 45.83774 4.89710 3156 ft 210 kts 162°
2026-05-07 19:27 45.82398 4.90258 2960 ft 195 kts 163°
2026-05-07 19:27 45.81156 4.90719 2700 ft 180 kts 164°
2026-05-07 19:28 45.79992 4.91197 2426 ft 167 kts 160°
2026-05-07 19:28 45.78911 4.91694 2136 ft 155 kts 160°
2026-05-07 19:28 45.77946 4.92131 1941 ft 139 kts 160°
2026-05-07 19:28 45.77042 4.92532 1677 ft 134 kts 161°
2026-05-07 19:29 45.76160 4.92962 1413 ft 136 kts 161°
2026-05-07 19:29 45.75256 4.93321 1110 ft 133 kts 162°
2026-05-07 19:29 45.74369 4.93722 904 ft 132 kts 163°
2026-05-07 19:29 45.73510 4.94090 718 ft 128 kts 163°
2026-05-07 19:30 45.72695 4.94439 660 ft 112 kts 163°
2026-05-07 19:30 45.72303 4.94603 665 ft 35 kts 163°
2026-05-07 19:30 45.72126 4.94678 667 ft 22 kts 164°
2026-05-07 19:30 45.71992 4.94733 668 ft 12 kts 167°
2026-05-07 19:31 45.71926 4.94679 669 ft 12 kts 242°
2026-05-07 19:31 45.71922 4.94570 668 ft 11 kts 295°
2026-05-07 19:31 45.71986 4.94514 668 ft 11 kts 341°
2026-05-07 19:31 45.72059 4.94482 667 ft 11 kts 343°
2026-05-07 19:32 45.72129 4.94453 664 ft 10 kts 343°
2026-05-07 19:32 45.72198 4.94424 665 ft 10 kts 343°
2026-05-07 19:32 45.72270 4.94392 665 ft 11 kts 343°
2026-05-07 19:32 45.72344 4.94351 664 ft 12 kts 324°
2026-05-07 19:33 45.72410 4.94289 663 ft 11 kts 339°
2026-05-07 19:33 45.72483 4.94256 663 ft 11 kts 343°
2026-05-07 19:33 45.72556 4.94225 661 ft 11 kts 344°
2026-05-07 19:33 45.72626 4.94196 661 ft 10 kts 343°
2026-05-07 19:34 45.72695 4.94169 661 ft 10 kts 345°
2026-05-07 19:34 45.72761 4.94141 659 ft 10 kts 343°
2026-05-07 19:34 45.72826 4.94113 659 ft 10 kts 343°
2026-05-07 19:34 45.72887 4.94080 659 ft 9 kts 330°
2026-05-07 19:35 45.72942 4.94032 658 ft 9 kts 333°
2026-05-07 19:35 45.73005 4.93999 658 ft 9 kts 341°
2026-05-07 19:35 45.73012 4.93954 658 ft 5 kts 252°
2026-05-07 19:35 45.73004 4.93904 658 ft 5 kts 272°
2026-05-07 19:36 45.73016 4.93888 657 ft 2 kts 350°
2026-05-07 19:36 45.73034 4.93885 657 ft 0 kts 346°